Tracking 29892 objects as of 21-Nov-2024
HD Live streaming from Space Station
objects crossing your sky now

STARLINK-5858

Track STARLINK-5858 now!
10-day predictions
STARLINK-5858 is classified as:


NORAD ID: 57264
Int'l Code: 2023-094AY
Perigee: 565.1 km
Apogee: 567.3 km
Inclination: 43.0 °
Period: 95.8 minutes
Semi major axis: 6937 km
RCS: Unknown
Launch date: July 7, 2023
Source: United States (US)
Launch site: AIR FORCE WESTERN TEST RANGE (AFWTR)
Your satellite tracking list
Your tracking list is empty




NASA's NSSDC Master Catalog

Two Line Element Set (TLE):
1 57264U 23094AY  24325.64178473 -.00002572  00000-0 -17534-3 0  9999
2 57264  43.0041  72.9242 0001521 266.8624  93.2045 15.02541538 75961
Source of the keplerian elements: AFSPC